Lapse_Rate
6.2 6.3 6.4 6.5 6.5 6.5 6.5 6.5 6.5 6.6 6.6 6.7 6.8 6.8 6.9 6.9 6.8 6.6 6.5 6.4 6.4 6.4 6.6 6.9 7.1 7.2 7.0 7.1 7.1 7.3 7.3 7.7 7.1 7.5 7.8 7.3 7.9 7.5 7.5 7.6 7.6 7.6 7.5 7.3 7.4 8.1 8.2
6.2 6.3 6.3 6.3 6.4 6.5 6.5 6.5 6.6 6.6 6.6 6.8 6.9 6.9 6.9 6.9 7.0 7.0 6.7 6.6 6.5 6.6 6.6 6.7 7.0 7.4 7.6 7.3 7.5 7.5 7.3 7.9 7.6 7.3 7.3 7.9 8.1 8.2 7.6 8.2 7.6 7.4 7.7 7.8 7.9 8.5 8.6
6.2 6.2 6.2 6.3 6.3 6.3 6.3 6.4 6.4 6.6 6.8 6.7 6.8 6.9 6.9 6.9 7.0 7.0 7.0 6.7 6.6 6.6 6.7 6.6 6.9 7.1 7.6 7.7 7.6 7.7 7.5 8.1 8.0 7.6 7.7 8.3 7.5 7.7 7.4 7.7 7.3 7.3 7.9 8.7 8.9 8.5 8.8
6.3 6.3 6.3 6.3 6.3 6.3 6.3 6.3 6.3 6.4 6.7 6.9 7.1 7.0 7.0 7.0 7.0 7.0 7.0 6.9 6.7 6.6 6.7 6.7 6.8 7.2 7.5 7.8 7.8 7.8 7.7 8.1 8.3 7.6 7.4 7.6 7.0 7.4 7.7 7.3 7.6 7.9 7.4 8.4 8.4 8.8 8.4
6.4 6.4 6.4 6.4 6.4 6.3 6.3 6.3 6.3 6.5 6.6 6.8 7.1 7.1 7.1 7.1 7.1 6.9 6.8 6.7 6.7 6.7 6.7 6.7 6.9 7.1 7.4 7.9 8.7 8.2 8.3 8.3 8.8 8.1 7.3 7.3 7.1 7.3 7.1 8.0 7.8 8.2 7.8 7.7 8.2 8.2 8.1
6.4 6.5 6.5 6.5 6.5 6.5 6.5 6.5 6.4 6.5 6.7 6.9 7.2 7.2 7.2 7.2 7.0 6.8 6.6 6.5 6.4 6.5 6.5 6.7 7.0 7.3 7.9 8.6 7.7 8.0 8.4 8.3 8.6 8.4 8.1 7.8 7.7 7.3 8.2 8.1 7.9 7.5 7.2 8.1 7.8 8.2 8.1
6.4 6.4 6.4 6.4 6.4 6.4 6.4 6.4 6.5 6.6 6.8 7.0 7.2 7.3 7.2 7.1 6.9 6.5 6.2 6.1 6.1 6.2 6.4 6.8 7.1 7.3 7.7 7.9 7.8 8.4 8.5 8.4 8.2 8.4 8.5 7.6 8.1 8.3 7.3 7.2 6.8 7.0 7.6 7.5 8.8 8.7 8.1
6.3 6.3 6.4 6.5 6.5 6.5 6.5 6.7 6.7 6.7 6.8 7.0 7.1 7.2 7.1 7.0 6.4 5.8 5.5 5.6 5.7 5.9 7.0 7.5 7.7 7.9 8.2 8.1 8.2 8.0 8.1 8.0 8.2 8.3 8.6 8.6 8.2 8.3 8.2 8.0 7.5 7.7 7.7 8.5 8.8 9.4 8.3
6.2 6.3 6.3 6.4 6.5 6.5 6.5 6.6 6.8 6.7 6.8 7.0 7.1 7.0 7.0 6.8 6.3 5.7 5.6 5.8 5.9 6.6 7.5 7.7 8.2 8.4 8.3 8.1 8.2 8.2 8.2 8.2 8.1 8.1 8.4 8.5 8.8 8.4 8.1 8.5 8.3 8.3 8.3 8.2 9.2 9.1 9.1
6.2 6.3 6.4 6.6 6.7 6.7 6.7 6.7 6.7 6.8 6.7 6.8 7.0 7.0 6.8 6.7 6.5 6.1 6.0 6.0 6.3 7.0 7.9 8.6 8.8 8.9 8.7 8.3 8.4 8.3 8.1 8.1 8.1 8.1 8.2 8.2 8.7 8.7 8.5 8.4 8.8 8.7 8.9 9.0 9.1 9.1 9.0
6.1 6.2 6.5 6.7 6.9 6.8 6.8 6.8 6.8 6.8 6.7 6.7 6.9 7.1 7.0 6.9 6.8 6.8 6.7 6.7 7.0 7.4 7.4 8.9 8.9 8.9 8.9 8.9 9.1 8.9 8.8 8.4 8.3 8.3 8.3 8.5 8.3 8.6 8.3 8.6 8.6 9.0 9.1 8.9 8.9 9.1 9.2
6.0 6.1 6.4 6.7 6.9 6.9 6.8 6.8 6.8 6.8 6.9 6.9 7.0 7.1 7.1 7.1 7.2 7.2 7.1 6.9 7.2 7.5 7.7 8.9 9.2 9.2 9.2 9.1 9.5 9.3 9.1 8.9 8.8 8.7 8.7 8.7 8.8 8.7 9.0 8.9 8.9 9.0 8.9 9.0 9.1 9.1 8.5
5.9 6.0 6.2 6.5 6.9 7.0 6.9 6.8 7.0 7.0 7.0 7.0 6.9 7.1 7.3 7.2 7.2 7.2 7.5 7.6 7.3 7.2 8.2 8.3 8.6 8.9 9.1 9.2 9.4 9.4 9.3 9.1 9.1 9.0 9.0 9.3 9.3 9.4 9.2 8.9 9.2 9.1 9.3 8.8 7.8 7.8 7.6
5.8 5.9 6.1 6.3 6.7 7.0 7.1 6.9 7.1 7.1 7.0 7.0 6.9 6.9 7.1 7.3 7.3 7.1 7.4 7.6 7.9 7.5 8.5 8.7 9.1 9.3 8.9 8.9 9.2 9.6 9.3 9.4 9.1 9.2 9.0 9.1 9.1 9.2 9.0 9.0 8.7 9.3 8.8 8.8 7.6 7.0 8.0
5.8 5.9 6.0 6.2 6.4 6.8 7.1 7.1 7.2 7.2 7.2 7.1 7.0 6.8 7.0 7.1 7.4 7.5 7.5 7.5 7.5 7.6 7.6 8.0 8.6 8.7 8.5 8.2 8.6 9.2 8.9 8.9 8.8 8.8 8.8 8.3 8.1 8.4 8.9 9.1 9.1 8.9 8.8 9.1 9.5 8.5 8.5
5.8 5.9 6.0 6.1 6.3 6.6 6.9 7.2 7.2 7.3 7.2 7.0 7.0 6.8 6.8 6.8 7.2 7.4 7.5 7.4 7.2 7.2 7.3 7.6 7.6 7.7 7.8 7.8 7.8 8.2 8.0 7.6 7.4 7.5 7.4 7.2 7.3 8.0 8.7 9.1 8.9 8.9 8.8 8.6 9.2 8.3 8.3
5.9 5.9 6.0 6.1 6.2 6.4 6.7 7.1 7.2 7.3 7.2 6.8 6.8 7.0 6.9 6.7 6.9 7.2 7.1 6.9 7.0 7.0 6.9 7.1 7.0 7.1 6.9 7.1 7.3 7.7 7.7 7.4 7.4 7.2 7.1 7.2 7.1 7.3 8.0 8.4 8.4 8.9 8.1 8.2 8.5 8.4 7.4
5.9 5.9 6.0 6.1 6.2 6.2 6.5 6.8 7.1 7.2 7.2 7.1 6.9 6.8 6.6 6.6 6.7 6.4 6.6 6.8 6.8 6.8 6.8 6.9 6.9 6.9 7.0 6.9 7.1 7.6 7.5 7.0 6.7 6.9 6.9 6.8 6.8 6.7 7.5 8.1 8.1 7.9 7.8 7.5 7.7 7.9 8.4
5.8 5.8 5.8 6.0 6.2 6.2 6.4 6.6 6.8 7.2 7.2 7.1 6.9 6.9 6.7 6.8 6.5 6.7 7.0 6.9 6.7 6.7 6.8 7.0 6.9 6.7 6.5 6.6 6.8 7.0 7.1 6.7 7.0 6.9 6.3 6.0 6.4 6.3 6.8 7.6 7.7 7.5 7.4 7.3 7.4 7.6 7.9
5.8 5.8 5.8 6.0 6.1 6.4 6.4 6.5 6.7 7.0 7.2 7.1 6.9 6.9 6.8 7.0 6.7 6.5 6.8 6.9 6.4 6.4 6.4 6.3 6.4 6.4 6.6 6.5 6.2 6.2 6.5 6.9 7.0 6.7 6.4 6.2 6.2 6.2 6.0 6.1 6.3 6.8 7.1 6.9 7.2 7.3 7.5
5.8 5.8 5.9 6.1 6.2 6.5 6.6 6.6 6.6 6.8 7.0 7.2 7.2 7.1 7.1 6.9 6.6 6.5 6.4 6.4 6.5 6.5 6.4 6.4 6.2 5.9 6.0 6.0 6.3 6.4 6.5 6.6 6.8 6.4 6.4 6.0 5.9 6.2 6.3 6.2 6.3 6.4 6.6 6.9 6.9 7.2 7.5
5.9 6.0 6.0 6.0 6.2 6.3 6.6 6.6 6.5 6.8 6.9 7.0 7.1 7.1 7.0 6.7 6.4 6.4 6.3 6.3 6.3 6.2 6.1 6.1 6.0 5.9 5.8 5.7 5.5 5.4 5.9 5.9 6.0 6.7 6.2 5.9 5.9 5.9 6.0 6.4 6.4 6.0 6.4 6.9 6.9 7.5 7.5
5.9 6.0 6.1 6.1 6.1 6.3 6.4 6.6 6.8 6.8 6.8 6.8 6.8 6.9 6.9 6.7 6.4 6.2 6.0 5.8 6.0 6.1 5.8 5.5 5.3 5.2 5.3 5.6 5.6 5.5 5.4 5.7 5.6 5.7 6.1 5.9 5.8 5.7 5.4 6.0 5.6 5.8 6.8 6.7 6.9 7.2 7.2
5.8 5.8 5.8 5.8 6.0 6.0 6.1 6.1 6.2 6.5 6.6 6.7 6.6 6.6 6.7 6.5 6.5 6.2 6.1 5.9 5.8 5.7 5.5 5.4 5.1 4.8 5.0 4.9 5.1 5.5 5.8 6.0 5.9 6.2 5.8 5.6 5.9 5.5 5.5 6.0 5.5 6.7 7.0 7.1 7.2 7.0 7.0
5.6 5.7 5.7 5.7 5.7 5.9 5.9 5.9 5.9 5.9 6.2 6.4 6.3 6.3 6.4 6.5 6.5 6.4 6.2 6.0 5.7 5.7 5.5 5.0 4.9 5.0 4.7 4.9 5.1 5.4 5.8 6.0 6.2 5.7 5.9 6.0 5.9 5.7 6.2 6.7 7.0 7.2 7.6 7.6 7.3 7.4 7.0
5.4 5.5 5.6 5.6 5.5 5.5 5.7 5.8 5.8 5.9 5.8 6.0 6.2 6.2 6.3 6.2 6.2 6.4 6.0 5.9 5.8 5.8 5.8 5.3 5.1 4.7 4.7 4.7 4.8 4.7 4.9 5.2 5.6 6.3 6.0 6.1 6.0 6.2 6.6 6.8 6.5 7.7 8.1 8.0 7.7 7.5 7.4
5.3 5.3 5.3 5.3 5.3 5.4 5.4 5.5 5.6 5.6 5.7 5.7 5.9 6.0 6.0 6.2 5.9 6.0 6.0 6.1 5.7 5.6 5.8 5.7 5.6 5.2 4.9 4.9 4.7 4.9 5.0 5.2 5.3 5.0 5.0 5.8 7.0 6.9 6.5 6.6 7.1 7.2 7.7 8.1 8.2 7.7 8.1
5.0 5.1 5.2 5.0 5.0 5.1 5.2 5.2 5.2 5.3 5.3 5.3 5.6 5.8 5.8 6.1 5.9 6.0 6.0 5.9 5.9 5.8 5.7 5.4 5.1 4.7 4.6 4.8 4.8 4.9 4.9 5.0 4.9 5.0 4.9 5.2 5.4 5.5 5.5 5.6 6.1 6.9 7.0 6.8 6.3 6.4 6.4
5.0 5.0 4.9 5.0 5.0 4.8 4.9 5.1 5.1 5.2 5.1 4.9 4.9 5.5 5.7 6.0 6.0 5.7 5.8 6.0 6.0 5.5 5.6 5.4 5.1 4.9 4.6 4.7 4.6 4.6 4.6 4.5 4.4 4.7 5.5 5.2 5.1 4.7 4.9 5.4 6.2 6.1 5.9 6.1 5.8 6.1 6.9
Wind_Speed
23 24 24 24 24 23 23 22 22 21 21 21 20 19 19 19 19 19 20 19 17 15 14 14 12 10 4 3 7 9 15 11 16 20 20 17 10 0 7 5 6 4 5 10 18 18 6
24 24 24 25 24 24 24 23 23 22 22 21 20 20 20 19 18 19 20 19 18 16 14 12 9 4 2 3 3 17 14 9 17 17 10 12 8 8 8 2 2 5 15 18 11 10 4
26 26 26 27 27 26 26 25 24 23 22 22 22 20 20 19 18 18 19 20 19 17 14 12 8 3 0 10 5 11 13 9 12 15 8 6 4 6 4 5 6 8 8 10 5 3 3
27 27 28 28 28 28 27 27 26 24 23 22 21 21 19 18 17 17 18 20 20 17 13 9 2 2 6 4 11 8 7 6 15 14 6 8 9 6 2 8 5 8 3 7 6 8 4
28 28 29 29 29 30 30 29 28 27 25 23 21 21 19 16 15 16 18 19 20 15 6 2 2 2 9 3 7 8 8 6 12 9 5 15 7 2 5 5 5 6 3 12 10 6 4
29 29 30 30 31 30 31 30 29 27 25 23 21 19 18 14 13 14 18 16 10 10 5 5 5 3 6 7 5 8 9 10 5 20 10 5 2 4 9 3 2 3 6 11 11 7 8
29 30 31 32 32 33 33 33 32 30 28 25 21 17 15 12 9 9 8 3 3 3 1 9 7 5 5 3 3 6 8 6 4 1 8 9 5 9 13 5 5 7 16 18 19 26 10
30 31 32 32 33 33 34 34 33 31 29 27 22 17 14 10 6 3 1 2 7 4 6 13 13 8 10 3 5 6 8 7 5 7 2 4 6 9 8 7 17 15 18 21 16 11 6
29 30 32 33 34 35 35 36 35 34 31 28 24 18 13 8 1 1 3 8 5 6 1 7 7 7 10 8 8 9 8 5 6 5 8 6 8 15 6 3 16 11 17 21 8 14 7
30 31 32 33 34 34 36 36 36 35 33 30 26 18 13 7 2 1 5 8 7 6 5 7 5 7 6 8 7 8 8 10 4 10 9 7 12 16 8 8 15 11 17 15 12 4 5
31 32 33 33 34 35 37 37 37 37 36 33 28 19 13 3 3 1 7 7 5 5 2 3 4 2 3 10 2 5 5 4 13 11 5 13 14 12 13 13 15 14 15 10 14 8 4
32 33 33 34 34 36 38 38 39 39 38 35 28 19 12 3 1 8 7 11 5 5 4 2 2 2 4 3 6 7 2 5 3 6 4 11 4 8 12 9 16 18 9 6 3 3 3
32 33 33 35 35 37 38 38 39 41 42 38 29 18 4 1 5 3 6 4 5 4 6 9 2 3 3 4 5 7 9 5 6 4 6 10 11 6 5 3 6 5 3 4 4 4 5
32 33 35 36 37 37 37 39 39 41 44 40 36 15 10 5 10 5 5 5 6 2 4 4 3 1 6 4 4 4 2 9 8 2 3 3 9 1 4 1 6 7 6 5 7 5 7
32 34 36 37 38 39 38 39 41 42 44 42 31 1 2 5 7 4 5 5 4 1 3 7 8 7 8 8 1 8 5 5 2 4 4 4 5 5 3 3 4 8 9 5 4 2 3
33 35 36 39 38 40 40 40 41 43 46 37 3 4 4 5 11 5 5 3 2 2 3 7 5 3 6 8 7 7 8 3 4 7 5 3 3 2 7 7 3 4 5 8 5 2 3
32 34 37 38 39 41 42 42 41 42 47 32 2 3 5 4 5 5 2 5 2 4 5 5 6 5 4 4 3 5 5 6 16 6 6 2 4 8 5 4 5 10 6 5 2 3 1
31 33 36 37 38 41 42 44 43 41 42 9 3 2 4 3 4 2 2 4 4 4 9 8 5 5 2 3 4 6 7 5 13 10 5 3 4 3 6 8 6 4 5 5 4 7 2
31 32 33 36 37 40 42 43 46 42 28 4 2 3 4 5 3 4 7 7 8 7 7 5 7 6 3 5 4 6 7 5 14 11 5 6 3 4 10 8 6 4 4 3 2 2 1
28 32 32 34 36 39 40 42 45 48 39 3 2 4 5 5 1 3 7 5 4 6 7 6 5 7 7 7 4 5 9 5 6 6 9 5 2 5 5 7 4 8 13 4 5 3 2
25 29 29 32 35 37 38 40 43 49 49 1 4 2 1 4 5 6 1 3 6 6 5 8 7 4 3 4 8 8 6 8 9 6 7 4 3 3 5 6 5 4 9 8 4 7 3
22 27 27 29 31 33 34 36 40 45 43 4 3 4 5 4 5 7 6 6 4 4 3 4 4 5 4 1 3 4 3 2 6 5 6 4 3 4 4 8 6 6 9 9 4 3 5
22 25 26 28 29 30 32 33 34 35 23 4 4 4 3 5 7 4 6 5 7 4 3 1 3 2 5 4 3 5 6 7 8 6 6 2 3 2 4 5 6 6 5 5 5 3 4
21 23 24 25 27 28 29 29 29 28 20 1 3 2 3 4 4 3 7 6 7 6 2 6 6 3 4 2 3 4 5 8 8 13 8 7 4 2 4 3 0 8 6 6 4 10 10
20 21 22 23 24 26 26 26 26 26 23 1 3 3 2 3 3 6 12 5 5 7 5 1 6 5 2 6 4 6 6 8 5 3 5 6 4 2 2 4 6 8 6 7 3 4 13
19 20 20 21 22 23 23 24 24 24 25 3 3 2 2 2 4 4 3 4 1 3 7 3 6 5 4 3 3 1 2 4 5 11 5 6 1 4 0 2 5 1 11 13 8 4 12
18 19 19 20 20 21 21 21 23 22 22 5 3 3 1 1 4 3 2 3 3 2 2 3 8 8 4 3 1 2 3 2 2 4 4 5 5 1 1 4 4 4 12 11 2 5 14
18 18 19 19 19 19 19 20 20 21 20 8 5 5 3 2 7 5 2 1 3 1 3 4 4 5 4 5 2 2 0 2 3 3 0 2 1 2 3 3 7 10 6 3 5 9 11
18 17 17 18 19 18 18 18 18 18 17 13 3 10 7 3 7 5 15 17 11 11 4 2 5 3 4 3 2 1 2 2 2 3 5 1 5 3 6 5 8 15 5 9 7 10 12
Wind_Direction
6 2 357 352 348 346 344 341 336 331 326 321 317 313 311 310 310 311 312 314 317 322 323 324 321 317 298 323 251 140 126 123 107 97 79 53 321 56 264 184 296 220 281 296 301 296 200
4 360 355 352 348 345 342 340 338 333 327 320 314 310 307 305 305 306 308 310 314 317 318 318 316 312 303 317 124 146 131 131 122 125 140 143 213 170 284 3 25 293 305 288 285 276 172
0 357 354 351 348 345 342 339 337 335 331 324 318 311 305 303 302 302 303 305 307 309 312 308 293 242 48 238 153 156 142 157 150 158 173 211 134 104 17 298 242 266 308 313 358 285 20
359 356 353 350 347 344 342 340 339 336 333 328 322 314 308 304 301 299 299 298 299 300 303 290 192 244 248 240 150 153 181 182 156 182 158 79 96 81 211 249 244 334 84 352 328 23 37
358 356 354 351 349 347 344 343 341 340 335 330 323 317 311 305 299 296 292 291 293 295 271 240 142 177 269 317 170 206 170 197 180 169 91 120 132 173 328 1 10 9 352 320 331 5 72
358 357 354 352 351 348 345 344 343 342 338 334 330 323 316 309 300 294 294 282 283 307 193 202 256 325 273 231 193 187 206 210 204 113 102 114 210 70 290 52 121 285 292 284 275 264 77
358 358 354 352 351 349 347 345 344 343 342 339 336 331 323 314 306 316 334 98 32 6 269 197 200 227 272 229 294 225 182 183 222 352 184 201 149 164 238 336 313 309 277 264 268 272 230
358 356 353 351 350 349 347 345 344 344 344 342 340 338 332 321 302 311 106 193 211 148 292 224 239 254 275 72 319 264 109 157 170 222 252 76 184 178 157 16 288 245 265 284 280 293 171
357 355 353 351 350 349 347 345 344 344 344 342 341 339 336 331 24 245 204 234 264 31 57 288 199 199 239 139 222 244 144 174 190 237 244 206 198 182 172 217 273 241 224 255 248 311 94
357 355 354 352 351 350 347 345 343 342 341 340 338 335 327 329 320 259 256 264 256 151 52 276 197 250 198 150 289 224 199 171 183 216 237 234 154 177 212 231 260 263 210 248 302 351 161
358 356 355 354 352 351 347 345 344 342 340 339 335 330 317 289 288 268 244 333 298 59 25 203 204 210 165 163 182 274 182 142 225 230 139 251 171 190 229 222 243 254 288 280 286 271 64
-0 359 356 354 353 351 347 347 344 341 338 337 331 324 320 124 223 243 326 318 47 48 286 292 149 205 136 174 254 275 16 150 213 191 223 245 223 186 213 232 227 258 282 298 11 88 48
359 356 355 354 353 351 349 347 345 341 338 336 328 317 261 316 242 2 354 37 51 107 308 337 356 281 204 269 260 196 253 276 195 127 257 277 274 288 177 256 303 209 102 300 332 1 222
357 353 353 352 353 351 350 348 346 342 338 338 326 317 208 220 244 36 35 51 52 256 348 291 302 43 119 342 274 235 208 250 19 246 75 176 305 2 339 197 226 289 170 163 213 204 241
356 354 353 352 351 350 351 350 347 344 340 339 322 18 259 253 196 113 70 55 210 7 320 338 343 53 352 349 73 20 54 43 27 32 79 50 294 304 61 245 148 320 354 231 164 81 97
355 355 353 351 352 350 351 352 350 346 340 338 341 344 273 248 131 69 71 237 315 31 359 52 41 51 8 338 33 27 10 328 341 32 120 314 327 324 306 350 91 87 288 357 358 334 283
356 355 354 354 353 351 351 351 353 349 341 332 32 30 256 109 83 59 142 230 261 58 71 61 24 27 9 12 14 354 334 14 355 344 61 101 101 293 12 29 318 348 6 10 146 84 323
355 355 355 355 354 352 352 351 352 354 346 33 357 35 307 15 46 39 353 308 307 13 30 39 90 64 33 317 357 2 14 56 358 359 27 334 127 324 258 266 264 218 111 92 84 308 258
354 355 355 357 356 354 353 352 351 352 6 324 14 268 323 73 78 342 323 334 49 55 21 32 21 28 6 346 7 41 351 44 31 15 19 326 355 6 343 350 8 40 68 82 168 57 317
355 357 357 357 358 355 355 354 352 349 353 133 41 10 337 20 95 77 6 325 77 30 54 45 38 53 23 14 30 317 356 337 32 353 7 55 75 151 196 236 270 317 330 2 115 101 244
356 358 358 358 358 356 357 357 356 352 344 126 25 357 121 326 335 340 18 327 53 19 19 31 18 73 68 352 349 356 355 337 344 18 25 70 256 48 265 256 317 313 336 352 332 250 185
357 358 358 358 358 358 359 360 0 359 348 61 57 27 347 298 305 338 3 355 41 356 66 8 48 357 44 5 194 269 340 353 263 321 26 352 271 359 302 298 324 306 311 295 266 290 296
355 357 357 357 357 358 359 1 4 8 11 37 326 334 101 290 340 31 331 332 49 27 326 107 321 335 314 273 220 236 208 202 222 254 298 261 173 66 265 302 349 337 217 278 283 339 317
352 353 354 355 356 357 357 360 3 8 21 223 272 5 37 295 7 14 322 341 9 343 261 299 311 222 232 358 322 329 303 267 227 249 187 237 156 123 253 20 113 239 252 240 228 53 36
347 349 351 352 354 355 356 358 359 1 5 342 294 32 40 298 306 318 342 324 11 355 353 0 342 303 270 44 31 2 340 3 324 133 27 205 111 279 206 210 279 304 28 330 340 83 36
341 343 345 347 349 352 354 355 357 356 1 360 284 295 64 100 238 298 295 343 36 327 345 319 317 311 61 92 73 120 265 250 310 331 56 85 36 134 331 247 252 306 320 309 285 158 22
337 338 339 340 343 346 351 352 353 353 354 343 286 326 104 270 270 69 284 259 304 2 246 350 321 346 33 65 92 197 261 291 338 1 327 337 336 335 258 244 274 315 327 311 246 281 337
328 332 333 334 337 339 344 347 349 350 347 0 279 333 73 274 274 241 258 223 334 137 145 273 18 352 16 43 92 295 358 292 355 308 23 241 313 317 343 299 275 14 13 85 254 301 314
328 327 331 332 331 334 336 339 344 345 344 349 303 330 329 191 252 243 265 250 219 215 131 293 175 224 211 69 27 39 342 347 153 288 320 289 169 210 198 236 305 320 208 287 278 283 291